Regional Weather Roundup
Issued by NWS

Home | Current Version | Previous Version | Text Only | Print | Product List | Glossary Off
Versions: 1 2 3 4 5 6 7 8 9 10 11 12 13 14 15 16 17 18 19 20 21 22 23 24 25 26 27 28 29 30 31 32 33 34 35 36 37 38 39 40 41 42 43 44 45 46 47 48 49 50

000
ASUS43 KBIS 250620
RWRND

NORTH DAKOTA REGIONAL WEATHER ROUNDUP
NATIONAL WEATHER SERVICE BISMARCK ND
100 AM CDT SAT APR 25 2015

NOTE: "FAIR" INDICATES FEW OR NO CLOUDS BELOW 12,000 FEET WITH NO
SIGNIFICANT WEATHER AND/OR OBSTRUCTIONS TO VISIBILITY.


NDZ001>003-009>011-017-250700-
NORTHWEST NORTH DAKOTA

CITY           SKY/WX    TMP DP  RH WIND       PRES   REMARKS
WILLISTON      MOCLDY    53  36  52 SE8       29.65S
6HR MIN TEMP:  53; 6HR MAX TEMP:  68;

MINOT          FAIR      43  37  79 E8        29.74R
MINOT AFB      FAIR      43  42  99 SE13      29.73R
$$

NDZ018>021-031>035-040>046-250700-
SOUTHWEST NORTH DAKOTA

CITY           SKY/WX    TMP DP  RH WIND       PRES   REMARKS
BISMARCK       CLEAR     43  40  89 NE8       29.71S
6HR MIN TEMP:  43; 6HR MAX TEMP:  66;

DICKINSON      CLEAR     44  36  73 E13       29.64S
GARRISON         N/A     46  41  82 SE16      29.70S
6HR MIN TEMP:  46; 6HR MAX TEMP:  65;

HETTINGER ARPT CLEAR     46  37  71 E12       29.65F
$$

NDZ004>008-012>016-024-026-027-054-250700-
NORTHEAST NORTH DAKOTA

CITY           SKY/WX    TMP DP  RH WIND       PRES   REMARKS
GRAND FORKS    CLOUDY    46  34  62 E9        29.83R
GRND FRKS AFB  CLOUDY    45  35  67 SE8       29.82S
DEVILS LAKE    CLOUDY    45  37  76 SE10      29.78F
$$

NDZ022-023-025-028>030-036>039-047>053-250700-
SOUTHEAST NORTH DAKOTA

CITY           SKY/WX    TMP DP  RH WIND       PRES   REMARKS
FARGO          CLOUDY    46  37  71 SE14      29.79R
6HR MIN TEMP:  46; 6HR MAX TEMP:  50;

JAMESTOWN      CLOUDY    44  40  85 E12       29.76R
$$



USA.gov is the U.S. government's official web portal to all federal, state and local government web resources and services.